Location: Newark
(12.4436°N, 0.6167°W)
Time: 00:15:20
(UTC+00:00)

Vanguard 1 - Pass Details

Date: 12 December 2019
Orbit: 650 x 3833 km, 34.2° (Epoch: 27 January)

Event Time Altitude Azimuth Distance (km) Brightness Sun altitude
Rises 13:29:00 0° 277° (W) 4,630 13.8 47.8°
Reaches altitude 10° 13:35:23 10° 245° (WSW) 2,900 13.3 47.0°
Maximum altitude 13:37:07 11° 229° (SW) 2,641 13.3 46.7°
Drops below altitude 10° 13:38:42 10° 214° (SSW) 2,558 13.2 46.5°
Sets 13:43:02 0° 176° (S) 3,133 13.2 45.9°
